COSMOS 1691 DEB, 16267

Orbit data source: Space-Track

COSMOS 1691 DEB, 16267 is space debris in LEO originally from a launch on Wed, 09 Oct 1985 UTC launched from the Plesetsk Missile And Space Complex (PKMTR). Debris objects in space refer to the collection of defunct objects orbiting the Earth. Examples of debris include non-operational satellites, rocket bodies, and fragments generated from explosions, collisions, or faulty payload assembly.

Loading next visibility...
Identifier
16267, 1985-094L
Orbit
LEO
Last TLE update
19 hours ago
Origin
Manufacturer
Unknown
Mission
Spacecraft
Bus & Motor
Unknown
Mass
Unknown
Launch date (UTC)
1985-10-09 (40 years ago)
Launch vehicle
Unknown
Launch site
Plesetsk Missile And Space Complex (PKMTR)
Object type
Payload
Rocket body
Debris
Shape & HBR
Unknown
Radar Cross Section
Small (<0.1 m²)

Expand to show TLE details & history

TLE from 19 hours ago
0 COSMOS 1691 DEB
1 16267U 85094L   25185.67113743  .00003517  00000-0  88633-2 0  9997
2 16267  82.6312  37.3771 0066275 278.1627 150.4022 13.18102638498573
Epoch: 2025-07-04T16:06Z
TLE epoch observation values (Epoch: 2025-07-04T16:06:26.273Z)
Latitude
67.81785°
Longitude
-108.7564°
Altitude
1,247.409 km
Speed
7.216 km/s
True Right ascension
03h 43m 05s
True Declination
67° 42' 18"
Sunlit
Object was in daylight at epoch
Visualization orbit readout
Latitude
35.97032°
Longitude
46.94609°
Altitude
1,230.433 km
Speed
7.226 km/s
Apparent Right ascension
12h 34m 10s
Apparent Declination
2° 10' 23"
Sunlit
Object is in daylight
Visualization observer readout
Local Sidereal Time
22:36:45
Azimuth
320.199° NNW
Elevation
-40.067°
Doppler factor
1
Orbital elements
Apogee altitude
1,239.368 km
Perigee altitude
1,139.063 km
Semi-major axis
7,567.353 km
Eccentricity
0.00663
Inclination
82.6312°
RAAN
37.3771°
Arg. of periapsis
278.1627°
True anomaly
Unknown
Mean anomaly
150.4022°
Eccentric anomaly
Unknown
Mean motion
3.29706 °/min
Orbital period
109.19 mins
BSTAR
0.0088633
Loading maneuver chart data...
Loading SW <> Apogee altitude chart data...
Loading historical data...
Loading historical data...
Loading historical data...
Loading historical data...
Loading historical data...
Loading historical data...
Loading historical data...

COSMOS 1691 DEB Visibility forecast

Observer location: undefined°, undefined°

Span
Click to sort rows by Start time (UTC) header in descending order
Start Az.
Max El. time (UTC)
Max El. Az.
Max El.
End time (UTC)
End Az.
12 mins2025-07-05 13:43:29.559Z141.484° SSE2025-07-05 13:49:29.559Z82.288° E27.288°2025-07-05 13:55:29.559Z27.652° NE
12 mins2025-07-05 15:33:29.559Z215.547° SW2025-07-05 15:39:29.559Z293.108° NW36.198°2025-07-05 15:45:29.559Z354.268° N
12 mins2025-07-06 01:09:29.559Z10.4° NNE2025-07-06 01:15:29.559Z82.142° E34.244°2025-07-06 01:21:29.559Z143.373° SSE
11 mins2025-07-06 03:00:29.559Z325.567° NNW2025-07-06 03:05:29.559Z267.072° W29.451°2025-07-06 03:11:29.559Z212.437° SW
|